When you browse on this site, cookies collect data to enhance your experience and personalize the content and advertising you see.
Visit our Privacy Policy to learn more. By continuing to use the site, you agree to this use of cookies and data.
  • In Hungary
  • List of Countries
  • For 7 days
  • Water Temperature
  • Weather Map
  • News
  • Weather Widgets
  • user-avatar
    Login

    Hourly Weather Boxmeer

    Today, 25 August, Sunday

    Time Temperature Precipitation Wind Pressure Humidity
    00:00 +19°C° 0 mm 2 mps 763 mmHg 60%
    01:00 +19°C° 0 mm 2 mps 763 mmHg 61%
    02:00 +20°C° 0 mm 1 mps 763 mmHg 62%
    03:00 +19°C° 0 mm 1 mps 763 mmHg 63%
    04:00 +20°C° 0 mm 1 mps 762 mmHg 64%
    05:00 +20°C° 0 mm 1 mps 762 mmHg 65%
    06:00 +20°C° 0 mm 1 mps 762 mmHg 67%
    07:00 +22°C° 0 mm 1 mps 763 mmHg 62%
    08:00 +23°C° 0 mm 0 mps 763 mmHg 57%
    09:00 +25°C° 0 mm 0 mps 763 mmHg 52%
    10:00 +26°C° 0 mm 0 mps 763 mmHg 49%
    11:00 +29°C° 0 mm 1 mps 763 mmHg 47%
    12:00 +30°C° 0 mm 1 mps 762 mmHg 44%
    13:00 +31°C° 0 mm 1 mps 762 mmHg 43%
    14:00 +31°C° 0 mm 1 mps 762 mmHg 41%
    15:00 +31°C° 0 mm 1 mps 762 mmHg 40%
    16:00 +30°C° 0 mm 1 mps 762 mmHg 45%
    17:00 +28°C° 0 mm 1 mps 762 mmHg 51%
    18:00 +27°C° 0 mm 2 mps 762 mmHg 56%
    19:00 +25°C° 0 mm 2 mps 763 mmHg 59%
    20:00 +24°C° 0 mm 2 mps 763 mmHg 62%
    21:00 +23°C° 0 mm 2 mps 763 mmHg 65%
    22:00 +23°C° 0 mm 2 mps 763 mmHg 71%
    23:00 +21°C° 0 mm 2 mps 763 mmHg 76%

    Tomorrow, 26 August, Monday

    Time Temperature Precipitation Wind Pressure Humidity
    00:00 +21°C° 0 mm 2 mps 763 mmHg 82%
    01:00 +21°C° 0 mm 2 mps 763 mmHg 84%
    02:00 +20°C° 0 mm 2 mps 763 mmHg 87%
    03:00 +21°C° 0 mm 1 mps 762 mmHg 90%
    04:00 +21°C° 0 mm 1 mps 762 mmHg 89%
    05:00 +22°C° 0 mm 1 mps 762 mmHg 88%
    06:00 +21°C° 0 mm 2 mps 762 mmHg 87%
    07:00 +24°C° 0 mm 2 mps 762 mmHg 80%
    08:00 +26°C° 0 mm 2 mps 762 mmHg 73%
    09:00 +28°C° 0 mm 2 mps 762 mmHg 66%
    10:00 +29°C° 0 mm 2 mps 762 mmHg 62%
    11:00 +30°C° 0 mm 2 mps 762 mmHg 58%
    12:00 +31°C° 0 mm 2 mps 762 mmHg 54%
    13:00 +31°C° 0 mm 2 mps 761 mmHg 53%
    14:00 +31°C° 0 mm 2 mps 761 mmHg 52%
    15:00 +32°C° 0 mm 1 mps 761 mmHg 51%
    16:00 +30°C° 0.1 mm 2 mps 761 mmHg 57%
    17:00 +29°C° 0.1 mm 2 mps 761 mmHg 63%
    18:00 +27°C° 0.1 mm 2 mps 761 mmHg 69%
    19:00 +26°C° 0.4 mm 3 mps 761 mmHg 73%
    20:00 +25°C° 0.4 mm 3 mps 761 mmHg 78%
    21:00 +24°C° 0.4 mm 3 mps 761 mmHg 83%
    22:00 +23°C° 0.1 mm 2 mps 761 mmHg 84%
    23:00 +23°C° 0.1 mm 2 mps 761 mmHg 86%

    Day after tomorrow, 27 August, Tuesday

    Time Temperature Precipitation Wind Pressure Humidity
    00:00 +23°C° 0.1 mm 2 mps 761 mmHg 88%
    01:00 +22°C° 0 mm 1 mps 761 mmHg 88%
    02:00 +22°C° 0 mm 1 mps 761 mmHg 88%
    03:00 +20°C° 0 mm 0 mps 760 mmHg 89%
    04:00 +20°C° 0 mm 0 mps 761 mmHg 87%
    05:00 +21°C° 0 mm 0 mps 761 mmHg 86%
    06:00 +21°C° 0 mm 0 mps 761 mmHg 85%
    07:00 +25°C° 0 mm 1 mps 761 mmHg 78%
    08:00 +26°C° 0 mm 1 mps 761 mmHg 71%
    09:00 +28°C° 0 mm 1 mps 761 mmHg 65%
    10:00 +29°C° 0 mm 1 mps 761 mmHg 58%
    11:00 +31°C° 0 mm 1 mps 761 mmHg 52%
    12:00 +32°C° 0 mm 1 mps 760 mmHg 45%
    13:00 +32°C° 0 mm 1 mps 760 mmHg 45%
    14:00 +32°C° 0 mm 2 mps 760 mmHg 44%
    15:00 +32°C° 0 mm 2 mps 760 mmHg 43%
    16:00 +30°C° 0 mm 2 mps 760 mmHg 48%
    17:00 +29°C° 0 mm 2 mps 760 mmHg 53%
    18:00 +27°C° 0 mm 2 mps 760 mmHg 58%
    19:00 +26°C° 0 mm 2 mps 760 mmHg 64%
    20:00 +25°C° 0 mm 2 mps 760 mmHg 69%
    21:00 +24°C° 0 mm 3 mps 760 mmHg 75%
    22:00 +24°C° 0 mm 2 mps 760 mmHg 78%
    23:00 +23°C° 0 mm 2 mps 760 mmHg 81%

    28 August, Wednesday

    Time Temperature Precipitation Wind Pressure Humidity
    00:00 +23°C° 0 mm 2 mps 760 mmHg 84%
    01:00 +23°C° 0 mm 2 mps 760 mmHg 84%
    02:00 +22°C° 0 mm 1 mps 760 mmHg 84%
    03:00 +22°C° 0 mm 1 mps 759 mmHg 84%
    04:00 +23°C° 0 mm 1 mps 759 mmHg 82%
    05:00 +23°C° 0 mm 1 mps 759 mmHg 81%
    06:00 +24°C° 0 mm 1 mps 759 mmHg 80%
    07:00 +25°C° 0 mm 1 mps 759 mmHg 73%
    08:00 +27°C° 0 mm 2 mps 759 mmHg 67%
    09:00 +28°C° 0 mm 2 mps 759 mmHg 61%
    10:00 +29°C° 0 mm 2 mps 758 mmHg 56%
    11:00 +30°C° 0 mm 2 mps 758 mmHg 51%
    12:00 +31°C° 0 mm 2 mps 758 mmHg 46%
    13:00 +32°C° 0 mm 2 mps 757 mmHg 44%
    14:00 +32°C° 0 mm 2 mps 757 mmHg 43%
    15:00 +32°C° 0 mm 2 mps 757 mmHg 41%
    16:00 +31°C° 0 mm 1 mps 757 mmHg 45%
    17:00 +30°C° 0 mm 1 mps 757 mmHg 49%
    18:00 +28°C° 0 mm 1 mps 756 mmHg 53%
    19:00 +27°C° 0.5 mm 2 mps 757 mmHg 59%
    20:00 +25°C° 0.5 mm 2 mps 757 mmHg 66%
    21:00 +23°C° 0.5 mm 2 mps 757 mmHg 72%
    22:00 +23°C° 0.6 mm 2 mps 757 mmHg 75%
    23:00 +23°C° 0.6 mm 2 mps 757 mmHg 78%

    29 August, Thursday

    Time Temperature Precipitation Wind Pressure Humidity
    00:00 +21°C° 0.6 mm 2 mps 757 mmHg 81%
    01:00 +21°C° 0 mm 2 mps 757 mmHg 81%
    02:00 +21°C° 0 mm 2 mps 757 mmHg 82%
    03:00 +21°C° 0 mm 2 mps 757 mmHg 83%
    04:00 +21°C° 0.1 mm 2 mps 757 mmHg 84%
    05:00 +21°C° 0.1 mm 2 mps 757 mmHg 85%
    06:00 +20°C° 0.1 mm 2 mps 757 mmHg 86%
    07:00 +21°C° 0.2 mm 3 mps 758 mmHg 84%
    08:00 +21°C° 0.2 mm 4 mps 758 mmHg 83%
    09:00 +22°C° 0.2 mm 4 mps 759 mmHg 82%
    10:00 +22°C° 0.2 mm 5 mps 759 mmHg 77%
    11:00 +23°C° 0.2 mm 5 mps 759 mmHg 73%
    12:00 +23°C° 0.2 mm 5 mps 759 mmHg 68%
    13:00 +23°C° 0 mm 6 mps 760 mmHg 64%
    14:00 +23°C° 0 mm 6 mps 760 mmHg 60%
    15:00 +23°C° 0 mm 6 mps 760 mmHg 56%
    16:00 +21°C° 0 mm 6 mps 761 mmHg 60%
    17:00 +20°C° 0 mm 5 mps 761 mmHg 64%
    18:00 +18°C° 0 mm 4 mps 762 mmHg 69%
    19:00 +17°C° 0 mm 3 mps 762 mmHg 69%
    20:00 +16°C° 0 mm 3 mps 763 mmHg 68%
    21:00 +14°C° 0 mm 3 mps 763 mmHg 68%
    22:00 +15°C° 0 mm 2 mps 764 mmHg 68%
    23:00 +14°C° 0 mm 2 mps 764 mmHg 69%

    30 August, Friday

    Time Temperature Precipitation Wind Pressure Humidity
    00:00 +14°C° 0 mm 2 mps 764 mmHg 69%
    01:00 +13°C° 0 mm 2 mps 764 mmHg 73%
    02:00 +13°C° 0 mm 2 mps 764 mmHg 77%
    03:00 +13°C° 0 mm 2 mps 764 mmHg 81%
    04:00 +13°C° 0 mm 2 mps 764 mmHg 81%
    05:00 +13°C° 0 mm 2 mps 765 mmHg 81%
    06:00 +12°C° 0 mm 3 mps 765 mmHg 81%
    07:00 +14°C° 0 mm 3 mps 765 mmHg 75%
    08:00 +17°C° 0 mm 3 mps 765 mmHg 68%
    09:00 +19°C° 0 mm 3 mps 765 mmHg 62%
    10:00 +20°C° 0 mm 3 mps 765 mmHg 57%
    11:00 +21°C° 0 mm 3 mps 765 mmHg 52%
    12:00 +22°C° 0 mm 3 mps 764 mmHg 48%
    13:00 +23°C° 0 mm 2 mps 764 mmHg 48%
    14:00 +23°C° 0 mm 2 mps 764 mmHg 49%
    15:00 +24°C° 0 mm 2 mps 764 mmHg 49%
    16:00 +21°C° 0 mm 2 mps 764 mmHg 55%
    17:00 +20°C° 0 mm 2 mps 764 mmHg 61%
    18:00 +20°C° 0 mm 1 mps 764 mmHg 67%
    19:00 +19°C° 0 mm 1 mps 764 mmHg 71%
    20:00 +18°C° 0 mm 1 mps 764 mmHg 75%
    21:00 +15°C° 0 mm 0 mps 764 mmHg 79%
    22:00 +15°C° 0 mm 1 mps 764 mmHg 79%
    23:00 +15°C° 0 mm 1 mps 763 mmHg 80%
    Show more